#timestamp,LO_Frequency,Hit,StdDev 
1569121215.3,286046999.0,N
1569121235.1,286046996.9,N
1569121255.9,286046997.1,N
1569121275.7,286046998.6,N
1569121295.5,286047000.8,N
1569121315.4,286046999.4,N
1569121335.2,286046996.6,N
1569121355.0,286046999.1,N
1569121355.9,286046999.1,N
1569121375.8,286046999.1,N
1569121395.6,286046996.6,N
1569121415.5,286046996.5,N
1569121435.3,286046999.6,N
1569121455.1,286046998.4,N
1569121475.9,286046998.6,N
1569121495.7,286046998.3,N
1569121515.5,286046999.0,N
1569121535.4,286047001.0,N
1569121555.2,286047000.1,N
1569121575.1,286047000.0,N
1569121576.0,286047000.0,N
1569121595.8,286047000.5,N
1569121615.7,286047000.3,N
1569121635.0,286047000.1,N
1569121635.9,286047000.1,N
1569121655.8,286047001.0,N
1569121675.6,286046998.3,N
1569121695.5,286047000.9,N
1569121715.3,286047000.1,N
1569121735.1,286047000.6,N
1569121755.9,286046999.7,N
1569121775.7,286047000.6,N
1569121795.6,286047000.1,N
1569121815.4,286047002.4,N
1569121835.2,286047002.7,N
1569121855.1,286046999.9,N
1569121856.0,286046999.9,N
1569121875.8,286047000.0,N
1569121895.7,286047000.1,N
1569121915.5,286047000.9,N
1569121935.3,286047002.0,N
1569121955.2,286047001.5,N
1569121975.0,286047004.2,Y
1569121975.9,286047004.2,P
1569121995.8,286047005.4,N
1569122015.6,286047005.4,N
1569122035.4,286047003.3,N
1569122055.3,286047001.5,N
1569122075.1,286047002.6,N
1569122095.9,286047002.6,N
1569122115.7,286047002.8,N
1569122135.5,286047004.3,N
1569122155.4,286047002.0,N
1569122175.2,286047002.0,N
1569122195.0,286047001.5,N
1569122195.9,286047001.5,N
1569122215.8,286047004.0,N
1569122235.6,286047003.2,N
1569122255.5,286047004.0,N
1569122275.3,286047003.7,N
1569122295.1,286047001.5,N
1569122315.9,286047001.3,N
1569122335.7,286047002.7,N
1569122355.6,286047000.1,N
1569122375.4,286047002.6,N
1569122395.2,286047000.1,N
1569122415.1,286046999.8,N
1569122416.0,286046999.8,N
1569122435.8,286047000.4,N
1569122455.6,286047000.9,N
1569122475.5,286047000.2,N
1569122495.3,286047000.7,N
1569122515.2,286047001.0,N
1569122535.9,286047000.1,N
1569122555.7,286047002.7,N
1569122575.6,286047004.3,N
1569122595.4,286047004.0,N
1569122615.3,286047003.5,N
1569122635.1,286047002.0,N
1569122636.0,286047002.0,N
1569122655.8,286047001.5,N
1569122675.7,286047004.0,N
1569122695.5,286047003.3,N
1569122715.3,286047001.5,N
1569122735.2,286047000.4,N
1569122755.0,286047000.7,N
1569122755.9,286047000.7,N
1569122775.8,286046999.7,N
1569122795.6,286047002.4,N
1569122815.4,286047002.4,N
1569122835.3,286047001.6,N
1569122855.1,286047002.1,N
1569122875.9,286047001.6,N
1569122895.7,286046999.7,N
1569122915.5,286047001.5,N
1569122935.4,286047004.4,Y
1569122955.2,286047002.0,P
1569123005.1,286047000.5,E
1569123015.9,286047001.0,N
1569123035.7,286047002.2,P
1569123055.6,286047002.8,P
1569123075.4,286047001.3,N
1569123095.3,286047003.2,Y
1569123115.1,286046999.9,P
1569123135.8,286047000.7,N
1569123155.7,286047001.2,N
1569123175.5,286047001.0,N
1569123195.4,286047000.5,N
1569123215.2,286047002.5,Y
1569123235.0,286047002.5,P
1569123235.9,286047002.5,P
1569123255.8,286047003.2,P
1569123275.6,286047003.1,Y
1569123295.5,286047002.5,P
1569123315.3,286047004.3,P
1569123335.1,286047001.7,N
1569123355.9,286047002.1,N
1569123375.7,286047002.0,N
1569123395.6,286047001.5,N
1569123415.4,286047001.5,N
1569123435.2,286047002.2,N
1569123455.1,286047001.6,N
1569123456.0,286047001.6,N
1569123475.8,286047003.9,Y
1569123495.7,286046999.9,P
1569123515.5,286046998.6,N
1569123535.3,286047001.1,N
1569123555.2,286046998.5,N
1569123575.0,286047001.1,N
1569123575.9,286047001.1,N
1569123595.8,286046998.1,N
1569123615.6,286046999.3,N
1569123635.4,286046999.1,N
1569123655.3,286046996.6,N
1569123675.1,286046996.7,N
1569123695.8,286046996.9,N
1569123715.7,286046997.9,N
1569123735.5,286046997.7,N
1569123755.4,286046994.9,Y
1569123775.2,286046994.9,P
1569123795.0,286046995.6,N
1569123795.9,286046995.6,N
1569123815.8,286046995.6,N
1569123835.6,286046993.9,Y
1569123855.5,286046999.6,P
1569123875.3,286046999.2,N
1569123895.1,286046999.0,N
1569123915.9,286046999.1,N
1569123935.7,286046999.2,N
1569123955.6,286046998.3,N
1569123975.4,286046998.3,N
1569123995.2,286046999.2,N
1569124015.1,286046997.4,N
1569124016.0,286046997.4,N
1569124035.8,286046996.8,Y
1569124055.6,286046998.5,P
1569124075.5,286046999.4,P
1569124095.3,286046997.3,P
1569124115.2,286046994.9,Y
1569124135.0,286046999.6,P
1569124135.9,286046999.6,N
1569124155.7,286046999.5,N
1569124175.6,286046997.1,Y
1569124195.4,286046996.8,P
1569124215.3,286046999.4,N
1569124235.1,286046997.4,N
1569124255.8,286046995.2,Y
1569124275.7,286046996.5,P
1569124295.5,286046999.3,N
1569124315.4,286046997.0,N
1569124335.2,286046995.0,Y
1569124355.1,286046998.7,P
1569124356.0,286046998.7,N
1569124375.8,286047000.1,N
1569124395.6,286047000.3,N
1569124415.5,286046999.8,N
1569124435.3,286047002.5,N
1569124455.2,286047000.6,N
1569124475.9,286047000.6,N
1569124495.7,286046999.8,N
1569124515.6,286047001.6,N
1569124535.4,286047004.2,Y
1569124555.2,286047002.5,P
1569124575.1,286047000.1,N
1569124576.0,286047000.1,N
1569124595.8,286047000.8,N
1569124615.7,286047001.0,N
1569124635.5,286047000.8,N
1569124655.3,286047000.8,N
1569124675.2,286046998.3,N
1569124695.0,286047001.2,N
1569124695.9,286047001.2,N
1569124715.8,286047001.2,N
1569124735.6,286046998.4,N
1569124755.4,286046999.9,N
1569124775.3,286047000.5,N
1569124795.1,286046999.9,N
